sat.trackr.live / text

‹ back to catalog

STARLINK-31837

NORAD 61514 · 2024-183F

PAYLOAD ACTIVE UNKNOWN

§ Identity

Operator
Country
US
Launch date
2024-10-15
Launch site
AFETR
Launch vehicle
Mass (kg)
RCS (m²)

Purposes: comms

External: N2YO · Heavens-Above · Gunter

§ Orbital elements

Epoch: 2026-09-20T20:26:49.140096Z

Period
93.85 min
Inclination
53.1610°
Eccentricity
0.0000991
Mean motion
15.34384714 rev/d
Perigee alt
462.1 km
Apogee alt
463.4 km
Semi-major
6,840.9 km
B*
5.7014e-5
RAAN
313.7361°
Arg perigee
89.3347°
Mean anomaly
270.7769°
Rev number
10,956

§ Raw data

STARLINK-318371 61514U 24183F   26263.85195764  .00001550  00000+0  57014-4 0  99902 61514  53.1610 313.7361 0000991  89.3347 270.7769 15.34384714109561

JSON: /api/v1/satellites/61514 · /tle

For live sub-satellite position, see the globe view (requires WebGL).

§ Visibility from observer

Set your observer location to see the next 7 days of passes ≥ 10°. The values pass through the URL so the page stays shareable.

No JS? Fill the form by hand. The geolocation button needs JavaScript.